Location: Mexico
(19.4000°N, 99.1500°W)
Time: 22:16:25
(UTC-06:00)

ISS - Pass Details

Date: 15 November 2019
Orbit: 412 x 421 km, 51.6° (Epoch: 12 November)

Event Time Altitude Azimuth Distance (km) Brightness Sun altitude
Rises 19:54:05 0° 221° (SW) 2,338 0.8 -27.3°
Reaches altitude 10° 19:56:10 10° 223° (SW) 1,479 -0.3 -27.8°
Enters shadow 19:57:00 17° 224° (SW) 1,144 -1.0 -28.0°
